Location: Casteau
(50.5142°N, 4.0161°E)
Time: 20:27:30
(UTC+00:00)

Tiros 1 - Pass Details

Date: 02 August 2021
Orbit: 630 x 663 km, 48.4° (Epoch: 28 September)

Event Time Altitude Azimuth Distance (km) Brightness Sun altitude
Rises 16:47:27 0° 207° (SSW) 2,980 10.9 23.4°
Reaches altitude 10° 16:50:16 10° 191° (S) 2,068 10.0 22.9°
Maximum altitude 16:53:47 21° 144° (SE) 1,484 8.8 22.4°
Drops below altitude 10° 16:57:17 10° 96° (E) 2,063 9.2 21.8°
Sets 17:00:06 0° 80° (E) 2,971 10.0 21.4°
